Volver al catálogo

THOR ABLESTAR DEB

ActivoLEO
NORAD 141·DEBRIS·🇺🇸 United States

Lanzado Jun 29, 1961 desde Cape Canaveral Space Force Station

Loading…

Próximos Pases (próximas 24 horas)

TLE

ActualizadoSource: Space-Track

Época: Sep 9, 2026, 05:26 UTC

1 00141U 61015AB  26252.22658327  .00000155  00000-0  18930-3 0  9996
2 00141  66.5884 197.7892 0054973 344.1113  15.8236 13.89061363283494

Sigue THOR ABLESTAR DEB en tiempo real con AllMySat

Download on the App Store